Time,TemperatureF,DewpointF,PressureIn,WindDirection,WindDirectionDegrees,WindSpeedMPH,WindSpeedGustMPH,Humidity,HourlyPrecipIn,Conditions,Clouds,dailyrainin,SolarRadiationWatts/m^2,SoftwareType,DateUTC
2013-03-11 00:14:00,59.4,55.0,30.13,East,96,1.0,3.0,86,0.00,,,0.00,0,weatherlink.com 1.10,2013-03-11 04:14:00,
2013-03-11 00:29:00,59.3,55.0,30.13,East,97,1.0,3.0,86,0.00,,,0.00,0,weatherlink.com 1.10,2013-03-11 04:29:00,
2013-03-11 00:44:00,59.1,55.0,30.12,East,88,2.0,3.0,87,0.00,,,0.00,0,weatherlink.com 1.10,2013-03-11 04:44:00,
2013-03-11 00:59:00,59.0,55.0,30.12,ESE,107,2.0,4.0,87,0.00,,,0.00,0,weatherlink.com 1.10,2013-03-11 04:59:00,
2013-03-11 01:14:00,59.1,55.0,30.12,East,101,1.0,2.0,86,0.00,,,0.00,0,weatherlink.com 1.10,2013-03-11 05:14:00,
2013-03-11 01:30:00,59.6,56.0,30.12,East,95,2.0,3.0,86,0.00,,,0.00,0,weatherlink.com 1.10,2013-03-11 05:30:00,
2013-03-11 01:45:00,59.9,55.0,30.11,ESE,122,2.0,6.0,84,0.00,,,0.00,0,weatherlink.com 1.10,2013-03-11 05:45:00,
2013-03-11 02:00:00,60.4,55.0,30.12,SE,125,2.0,4.0,82,0.00,,,0.00,0,weatherlink.com 1.10,2013-03-11 06:00:00,
2013-03-11 02:15:00,59.9,55.0,30.12,SE,141,1.0,5.0,83,0.00,,,0.00,0,weatherlink.com 1.10,2013-03-11 06:15:00,
2013-03-11 02:30:00,59.1,55.0,30.12,SE,145,1.0,3.0,85,0.00,,,0.00,0,weatherlink.com 1.10,2013-03-11 06:30:00,
2013-03-11 02:45:00,58.5,54.0,30.11,SSE,148,0.0,3.0,86,0.00,,,0.00,0,weatherlink.com 1.10,2013-03-11 06:45:00,
2013-03-11 03:00:00,57.9,54.0,30.11,SSE,154,0.0,2.0,87,0.00,,,0.00,0,weatherlink.com 1.10,2013-03-11 07:00:00,
2013-03-11 03:15:00,57.2,54.0,30.10,SSE,154,0.0,1.0,88,0.00,,,0.00,0,weatherlink.com 1.10,2013-03-11 07:15:00,
2013-03-11 03:30:00,56.7,54.0,30.09,SSE,154,0.0,2.0,89,0.00,,,0.00,0,weatherlink.com 1.10,2013-03-11 07:30:00,
2013-03-11 03:45:00,56.3,54.0,30.09,SE,132,0.0,2.0,90,0.00,,,0.00,0,weatherlink.com 1.10,2013-03-11 07:45:00,
2013-03-11 04:00:00,56.1,53.0,30.08,SE,132,0.0,1.0,90,0.00,,,0.00,0,weatherlink.com 1.10,2013-03-11 08:00:00,
2013-03-11 04:15:00,55.6,53.0,30.07,SE,130,0.0,1.0,91,0.00,,,0.00,0,weatherlink.com 1.10,2013-03-11 08:15:00,
2013-03-11 04:31:00,55.4,53.0,30.06,ESE,108,0.0,3.0,91,0.00,,,0.00,0,weatherlink.com 1.10,2013-03-11 08:31:00,
2013-03-11 04:46:00,55.6,53.0,30.05,ESE,106,0.0,2.0,91,0.00,,,0.00,0,weatherlink.com 1.10,2013-03-11 08:46:00,
2013-03-11 05:01:00,55.8,53.0,30.05,ESE,106,0.0,1.0,91,0.00,,,0.00,0,weatherlink.com 1.10,2013-03-11 09:01:00,
2013-03-11 05:16:00,55.9,53.0,30.05,ESE,106,0.0,1.0,91,0.00,,,0.00,0,weatherlink.com 1.10,2013-03-11 09:16:00,
2013-03-11 05:31:00,55.9,53.0,30.05,ESE,106,0.0,1.0,91,0.00,,,0.00,0,weatherlink.com 1.10,2013-03-11 09:31:00,
2013-03-11 06:01:00,55.5,53.0,30.05,East,101,0.0,1.0,92,0.00,,,0.00,0,weatherlink.com 1.10,2013-03-11 10:01:00,
2013-03-11 06:16:00,55.4,53.0,30.05,ESE,103,0.0,2.0,92,0.00,,,0.00,0,weatherlink.com 1.10,2013-03-11 10:16:00,
2013-03-11 06:31:00,55.3,53.0,30.05,ESE,103,1.0,2.0,92,0.00,,,0.00,0,weatherlink.com 1.10,2013-03-11 10:31:00,
2013-03-11 06:46:00,55.0,53.0,30.05,ESE,106,0.0,2.0,92,0.00,,,0.00,0,weatherlink.com 1.10,2013-03-11 10:46:00,
2013-03-11 07:01:00,55.0,53.0,30.05,ESE,106,1.0,1.0,93,0.00,,,0.00,0,weatherlink.com 1.10,2013-03-11 11:01:00,
2013-03-11 07:16:00,54.8,53.0,30.05,ESE,102,0.0,1.0,93,0.00,,,0.00,0,weatherlink.com 1.10,2013-03-11 11:16:00,
2013-03-11 07:31:00,54.9,53.0,30.05,ESE,122,0.0,1.0,93,0.00,,,0.00,0,weatherlink.com 1.10,2013-03-11 11:31:00,
2013-03-11 07:46:00,55.0,53.0,30.05,ESE,109,0.0,1.0,92,0.00,,,0.00,11,weatherlink.com 1.10,2013-03-11 11:46:00,
2013-03-11 08:02:00,55.0,53.0,30.05,East,100,2.0,2.0,93,0.00,,,0.00,30,weatherlink.com 1.10,2013-03-11 12:02:00,
2013-03-11 08:17:00,55.7,54.0,30.06,SE,144,1.0,2.0,92,0.00,,,0.00,54,weatherlink.com 1.10,2013-03-11 12:17:00,
2013-03-11 08:32:00,56.8,54.0,30.06,SE,126,2.0,2.0,91,0.00,,,0.00,102,weatherlink.com 1.10,2013-03-11 12:32:00,
2013-03-11 08:47:00,58.2,55.0,30.06,SE,130,2.0,3.0,88,0.00,,,0.00,84,weatherlink.com 1.10,2013-03-11 12:47:00,
2013-03-11 09:02:00,60.3,56.0,30.06,SE,141,2.0,5.0,85,0.00,,,0.00,267,weatherlink.com 1.10,2013-03-11 13:02:00,
2013-03-11 09:17:00,62.7,56.0,30.06,ESE,111,1.0,8.0,80,0.00,,,0.00,258,weatherlink.com 1.10,2013-03-11 13:17:00,
2013-03-11 09:32:00,64.5,57.0,30.05,SSE,147,5.0,8.0,76,0.00,,,0.00,218,weatherlink.com 1.10,2013-03-11 13:32:00,
2013-03-11 09:47:00,65.8,57.0,30.06,SSE,155,6.0,11.0,73,0.00,,,0.00,408,weatherlink.com 1.10,2013-03-11 13:47:00,
2013-03-11 10:02:00,67.0,57.0,30.06,SSE,155,5.0,13.0,71,0.00,,,0.00,288,weatherlink.com 1.10,2013-03-11 14:02:00,
2013-03-11 10:17:00,67.7,58.0,30.06,SSE,160,6.0,10.0,70,0.00,,,0.00,448,weatherlink.com 1.10,2013-03-11 14:17:00,
2013-03-11 10:32:00,69.0,58.0,30.07,ESE,122,5.0,11.0,68,0.00,,,0.00,446,weatherlink.com 1.10,2013-03-11 14:32:00,
2013-03-11 10:47:00,69.8,58.0,30.06,SSE,166,7.0,9.0,67,0.00,,,0.00,466,weatherlink.com 1.10,2013-03-11 14:47:00,
2013-03-11 11:04:00,70.2,57.0,30.06,SSE,148,5.0,13.0,64,0.00,,,0.00,385,weatherlink.com 1.10,2013-03-11 15:04:00,
2013-03-11 11:18:00,70.7,58.0,30.06,East,101,3.0,10.0,64,0.00,,,0.00,309,weatherlink.com 1.10,2013-03-11 15:18:00,
2013-03-11 11:34:00,71.3,58.0,30.06,East,101,5.0,9.0,63,0.00,,,0.00,378,weatherlink.com 1.10,2013-03-11 15:34:00,
2013-03-11 11:48:00,71.8,58.0,30.06,ESE,119,4.0,11.0,62,0.00,,,0.00,320,weatherlink.com 1.10,2013-03-11 15:48:00,
2013-03-11 12:04:00,71.5,58.0,30.05,ESE,113,10.0,11.0,62,0.00,,,0.00,260,weatherlink.com 1.10,2013-03-11 16:04:00,
2013-03-11 12:18:00,71.9,58.0,30.06,ESE,122,0.0,7.0,62,0.00,,,0.00,271,weatherlink.com 1.10,2013-03-11 16:18:00,
2013-03-11 12:34:00,71.9,58.0,30.05,SSE,149,3.0,10.0,61,0.00,,,0.00,283,weatherlink.com 1.10,2013-03-11 16:34:00,
2013-03-11 13:04:00,72.6,57.0,30.04,SE,141,2.0,8.0,59,0.00,,,0.00,248,weatherlink.com 1.10,2013-03-11 17:04:00,
2013-03-11 13:18:00,73.8,58.0,30.03,ESE,109,1.0,11.0,58,0.00,,,0.00,454,weatherlink.com 1.10,2013-03-11 17:18:00,
2013-03-11 13:34:00,74.4,57.0,30.03,SE,137,6.0,11.0,55,0.00,,,0.00,415,weatherlink.com 1.10,2013-03-11 17:34:00,
2013-03-11 13:48:00,74.6,56.0,30.02,South,169,7.0,15.0,53,0.00,,,0.00,362,weatherlink.com 1.10,2013-03-11 17:48:00,
2013-03-11 14:04:00,75.4,57.0,30.01,SSE,156,5.0,12.0,53,0.00,,,0.00,471,weatherlink.com 1.10,2013-03-11 18:04:00,
2013-03-11 14:19:00,76.2,57.0,30.00,WSW,249,7.0,12.0,51,0.00,,,0.00,710,weatherlink.com 1.10,2013-03-11 18:19:00,
2013-03-11 14:34:00,76.4,57.0,29.98,SSE,164,4.0,12.0,51,0.00,,,0.00,457,weatherlink.com 1.10,2013-03-11 18:34:00,
2013-03-11 14:49:00,76.3,57.0,29.98,SW,219,4.0,12.0,51,0.00,,,0.00,410,weatherlink.com 1.10,2013-03-11 18:49:00,
2013-03-11 15:04:00,75.9,57.0,29.97,SW,228,3.0,13.0,52,0.00,,,0.00,322,weatherlink.com 1.10,2013-03-11 19:04:00,
2013-03-11 15:19:00,75.3,57.0,29.96,South,180,5.0,8.0,54,0.00,,,0.00,229,weatherlink.com 1.10,2013-03-11 19:19:00,
2013-03-11 15:34:00,76.3,57.0,29.95,SW,215,4.0,10.0,52,0.00,,,0.00,285,weatherlink.com 1.10,2013-03-11 19:34:00,
2013-03-11 15:49:00,76.3,57.0,29.94,SSE,162,3.0,12.0,52,0.00,,,0.00,332,weatherlink.com 1.10,2013-03-11 19:49:00,
2013-03-11 16:04:00,75.8,57.0,29.94,SSE,161,3.0,12.0,52,0.00,,,0.00,297,weatherlink.com 1.10,2013-03-11 20:04:00,
2013-03-11 16:19:00,75.9,57.0,29.93,SSW,195,4.0,11.0,52,0.00,,,0.00,285,weatherlink.com 1.10,2013-03-11 20:19:00,
2013-03-11 16:34:00,75.8,57.0,29.92,ESE,110,3.0,7.0,53,0.00,,,0.00,232,weatherlink.com 1.10,2013-03-11 20:34:00,
2013-03-11 16:50:00,75.7,58.0,29.93,SSE,159,5.0,10.0,54,0.00,,,0.00,279,weatherlink.com 1.10,2013-03-11 20:50:00,
2013-03-11 17:05:00,75.6,58.0,29.92,South,169,2.0,9.0,54,0.00,,,0.00,190,weatherlink.com 1.10,2013-03-11 21:05:00,
2013-03-11 17:21:00,75.2,57.0,29.92,South,191,5.0,9.0,54,0.00,,,0.00,118,weatherlink.com 1.10,2013-03-11 21:21:00,
2013-03-11 17:35:00,75.0,58.0,29.92,SE,146,1.0,7.0,56,0.00,,,0.00,118,weatherlink.com 1.10,2013-03-11 21:35:00,
2013-03-11 17:50:00,75.1,58.0,29.92,SSW,196,1.0,7.0,55,0.00,,,0.00,111,weatherlink.com 1.10,2013-03-11 21:50:00,
2013-03-11 18:05:00,75.0,58.0,29.92,SSE,167,0.0,4.0,56,0.00,,,0.00,111,weatherlink.com 1.10,2013-03-11 22:05:00,
2013-03-11 18:20:00,74.8,58.0,29.91,South,184,3.0,8.0,56,0.00,,,0.00,79,weatherlink.com 1.10,2013-03-11 22:20:00,
2013-03-11 18:35:00,74.6,58.0,29.91,SE,142,1.0,6.0,56,0.00,,,0.00,60,weatherlink.com 1.10,2013-03-11 22:35:00,
2013-03-11 18:50:00,74.2,58.0,29.91,South,180,1.0,3.0,57,0.00,,,0.00,30,weatherlink.com 1.10,2013-03-11 22:50:00,
2013-03-11 19:05:00,73.7,58.0,29.91,SW,222,1.0,4.0,59,0.00,,,0.00,16,weatherlink.com 1.10,2013-03-11 23:05:00,
2013-03-11 19:20:00,73.3,58.0,29.90,SSE,163,1.0,2.0,60,0.00,,,0.00,12,weatherlink.com 1.10,2013-03-11 23:20:00,
2013-03-11 19:35:00,72.4,59.0,29.89,SSW,192,2.0,4.0,63,0.00,,,0.00,0,weatherlink.com 1.10,2013-03-11 23:35:00,
2013-03-11 19:50:00,71.5,59.0,29.89,SW,219,0.0,2.0,64,0.00,,,0.00,0,weatherlink.com 1.10,2013-03-11 23:50:00,
2013-03-11 20:06:00,70.9,59.0,29.89,SSW,211,0.0,2.0,66,0.00,,,0.00,0,weatherlink.com 1.10,2013-03-12 00:06:00,
2013-03-11 20:20:00,70.3,59.0,29.90,SSW,211,0.0,0.0,67,0.00,,,0.00,0,weatherlink.com 1.10,2013-03-12 00:20:00,
2013-03-11 20:35:00,69.6,59.0,29.90,SSW,211,0.0,1.0,68,0.00,,,0.00,0,weatherlink.com 1.10,2013-03-12 00:35:00,
2013-03-11 20:50:00,69.1,59.0,29.91,SSW,211,0.0,1.0,70,0.00,,,0.00,0,weatherlink.com 1.10,2013-03-12 00:50:00,
2013-03-11 21:05:00,68.8,59.0,29.91,SSW,211,0.0,1.0,70,0.00,,,0.00,0,weatherlink.com 1.10,2013-03-12 01:05:00,
2013-03-11 21:21:00,68.0,59.0,29.92,SSW,211,0.0,0.0,72,0.00,,,0.00,0,weatherlink.com 1.10,2013-03-12 01:21:00,
2013-03-11 21:36:00,66.9,58.0,29.93,SE,138,1.0,3.0,74,0.00,,,0.00,0,weatherlink.com 1.10,2013-03-12 01:36:00,
2013-03-11 21:51:00,67.2,59.0,29.93,SE,134,1.0,2.0,74,0.00,,,0.00,0,weatherlink.com 1.10,2013-03-12 01:51:00,
2013-03-11 22:06:00,67.9,59.0,29.94,SSE,155,2.0,8.0,73,0.00,,,0.00,0,weatherlink.com 1.10,2013-03-12 02:06:00,
2013-03-11 22:20:00,68.8,59.0,29.95,SSE,155,1.0,9.0,72,0.00,,,0.00,0,weatherlink.com 1.10,2013-03-12 02:20:00,
2013-03-11 22:36:00,68.8,59.0,29.94,SSE,149,0.0,3.0,72,0.00,,,0.00,0,weatherlink.com 1.10,2013-03-12 02:36:00,
2013-03-11 22:51:00,68.6,60.0,29.95,SE,142,1.0,3.0,73,0.00,,,0.00,0,weatherlink.com 1.10,2013-03-12 02:51:00,
2013-03-11 23:06:00,68.3,60.0,29.94,SE,130,2.0,6.0,74,0.00,,,0.00,0,weatherlink.com 1.10,2013-03-12 03:06:00,
2013-03-11 23:21:00,68.1,60.0,29.93,ESE,123,1.0,5.0,75,0.00,,,0.00,0,weatherlink.com 1.10,2013-03-12 03:21:00,
2013-03-11 23:36:00,67.9,60.0,29.93,SE,134,2.0,6.0,75,0.00,,,0.00,0,weatherlink.com 1.10,2013-03-12 03:36:00,